This is the latest recevied weather packets stored in our database for station/object KC9Q. If no packets are shown the sender has not sent any weather packets the latest 10 day(s).
| Time | Temp. | Humidity | Pressure | Rain* | Wind** | Luminosity | Snow |
|---|---|---|---|---|---|---|---|
| 1777735426 | 15.56° C | 49% | 1016.9 hPa | 0 mm | - | 106 W/m² | - |
| 1777735123 | 15.56° C | 54% | 1017 hPa | 0 mm | - | 106 W/m² | - |
| 1777734819 | 15° C | 53% | 1017.1 hPa | 0 mm | - | 117 W/m² | - |
| 1777734517 | 15° C | 57% | 1017.1 hPa | 0 mm | - | 140 W/m² | - |
| 1777734214 | 15° C | 57% | 1017 hPa | 0 mm | - | 105 W/m² | - |
| 1777733910 | 15° C | 54% | 1017.1 hPa | 0 mm | - | 148 W/m² | - |
| 1777733607 | 14.44° C | 57% | 1017.1 hPa | 0 mm | - | 287 W/m² | - |
| 1777733303 | 14.44° C | 58% | 1017.2 hPa | 0 mm | - | 154 W/m² | - |
| 1777733000 | 13.89° C | 58% | 1017.3 hPa | 0 mm | - | 117 W/m² | - |
| 1777732696 | 13.89° C | 58% | 1017.2 hPa | 0 mm | - | 192 W/m² | - |
| 1777732393 | 13.89° C | 59% | 1017.1 hPa | 0 mm | - | 201 W/m² | - |
| 1777732091 | 13.89° C | 57% | 1017.1 hPa | 0 mm | - | 143 W/m² | - |
| 1777731788 | 13.89° C | 58% | 1017.2 hPa | 0 mm | - | 236 W/m² | - |
| 1777731485 | 13.89° C | 61% | 1017.3 hPa | 0 mm | - | 252 W/m² | - |
| 1777731183 | 13.33° C | 62% | 1017.2 hPa | 0 mm | - | 373 W/m² | - |
| 1777730880 | 13.33° C | 62% | 1017.3 hPa | 0 mm | - | 136 W/m² | - |
| 1777730578 | 13.33° C | 66% | 1017.4 hPa | 0 mm | - | 197 W/m² | - |
| 1777730274 | 12.78° C | 65% | 1017.2 hPa | 0 mm | - | 152 W/m² | - |
| 1777729971 | 12.78° C | 67% | 1017.3 hPa | 0 mm | - | 129 W/m² | - |
| 1777729666 | 12.78° C | 65% | 1017.4 hPa | 0 mm | - | 194 W/m² | - |
| 1777729364 | 12.22° C | 70% | 1017.3 hPa | 0 mm | - | 142 W/m² | - |
| 1777729060 | 12.22° C | 71% | 1017.5 hPa | 0 mm | - | 105 W/m² | - |
| 1777728757 | 12.22° C | 70% | 1017.3 hPa | 0 mm | - | 197 W/m² | - |
| 1777728453 | 12.22° C | 64% | 1017.1 hPa | 0 mm | - | 136 W/m² | - |
| 1777728151 | 12.22° C | 68% | 1017.2 hPa | 0 mm | - | 97 W/m² | - |
* Rain latest hour (hover to see other rain measurements)
** Current wind speed in m/s (hover to see current wind gust speed)